User: anonymous   Login
Location: Cincinnati Observatory Center
(39.1389°N, 84.4225°W)
Time: 01:39:36
(UTC-05:00)
Language:

COSMOS 2428 - Orbit

View from above orbital plane
View from above orbital plane
View from above satellite
View from above satellite

Ground track
Ground track

The orbit data is extracted from the following two-line orbital elements,

1 31792U 07029A   14330.86500523  .00000315  00000-0  19609-3 0  2147
2 31792 070.9768 208.7521 0012388 245.3089 242.7423 14.12481790382283
Epoch (UTC): 26 November 2014 20:45:36
Eccentricity: 0.0012388
inclination: 70.9768°
perigee height: 842 km
apogee height: 860 km
right ascension of ascending node: 208.7521°
argument of perigee: 245.3089°
revolutions per day: 14.12481790
mean anomaly at epoch: 242.7423°
orbit number at epoch: 38228

The dashed part of the orbit path shows where the satellite is in the earth's shadow,  

DLR